Regional Weather Roundup
Issued by NWS State College, PA

Home | Current Version | Previous Version | Text Only | Print | Product List | Glossary Off
Versions: 1 2 3 4 5 6 7 8 9 10 11 12 13 14 15 16 17 18 19 20 21 22 23 24 25 26 27 28 29 30 31 32 33 34 35 36 37 38 39 40 41 42 43 44 45 46 47 48 49 50

000
ASUS41 KCTP 252003
RWRCTP

REGIONAL WEATHER ROUNDUP
NATIONAL WEATHER SERVICE STATE COLLEGE PA
400 PM EDT WED APR 25 2018

Note: "fair" indicates few or no clouds below 12,000 feet with no
significant weather and/or obstructions to visibility.

* = STATION THAT DOES NOT REPORT PRECIPITATION /E.G. RAIN...SNOW...ETC/
    THUNDER OR FOG.

PAZ002>004-007>009-013>016-020>023-029>032-252100-
WESTERN PENNSYLVANIA

CITY           SKY/WX    TMP DP  RH WIND       PRES   REMARKS
ERIE           LGT RAIN  44  42  93 W13       29.84S FOG
MEADVILLE      CLOUDY    48  48 100 NW10      29.82S FOG
FRANKLIN*      LGT RAIN  51  49  92 NW9G18    29.81R FOG
NEW CASTLE     CLOUDY    52  52 100 NW12G18   29.84R FOG
BEAVER COUNTY  LGT RAIN  52  50  93 NW10G16   29.82S
BUTLER*        LGT RAIN  54  51  90 W6        29.81S
PITTSBURGH INT DRIZZLE   55  53  93 NW12      29.80S FOG
PITTSBURGH     LGT RAIN  55  53  93 NW7       29.79S FOG
INDIANA*       CLOUDY    57  52  82 NW9       29.80F
LATROBE        CLOUDY    57  52  82 NW12      29.79F
WASHINGTON CO* LGT RAIN  54  52  93 NW9       29.84S FOG
$$

PAZ004>006-010>012-017>019-024>028-033>037-041-042-045-046-049>053-252100-
CENTRAL PENNSYLVANIA

CITY           SKY/WX    TMP DP  RH WIND       PRES   REMARKS
BRADFORD       LGT RAIN  52  48  86 NW12      29.76F
DUBOIS         CLOUDY    53  49  86 NW12      29.76S
CLEARFIELD     CLOUDY    58  51  78 S3        29.74F
JOHNSTOWN      CLOUDY    56  50  80 W8        29.75F
ALTOONA        LGT RAIN  60  51  72 NW9       29.75F
STATE COLLEGE  PTSUNNY   57  50  77 W7        29.74F
WILLIAMSPORT   CLOUDY    61  54  77 SW6       29.71F
SELINSGROVE    CLOUDY    62  55  77 N6        29.70F
FT INDIANTOWN  CLOUDY    63  55  77 SE3       29.69F
CAPITAL CITY   CLOUDY    63  56  78 N7        29.70F
HARRISBURG     CLOUDY    61  56  83 NW6       29.69F
YORK           CLOUDY    61  57  87 NW6       29.70F
$$

PAZ038>040-043-044-047-048-054-055-060>062-067>071-252100-
EASTERN PENNSYLVANIA

CITY           SKY/WX    TMP DP  RH WIND       PRES   REMARKS
SCRANTON       CLOUDY    61  57  87 N5        29.69F
MOUNT POCONO   LGT RAIN  54  54 100 E5        29.71F FOG
ALLENTOWN      CLOUDY    61  57  87 NE5       29.69F
QUAKERTOWN*    CLOUDY    61  61 100 CALM      29.69F FOG
READING        CLOUDY    62  59  90 NE6       29.68F
LANCASTER      CLOUDY    64  58  80 N3        29.68F
COATESVILLE    CLOUDY    63  59  88 VRB3G12   29.69F
POTTSTOWN      CLOUDY    62  59  90 N7        29.69F
BLUE BELL      CLOUDY    61  61 100 CALM      29.69S
DOYLESTOWN     CLOUDY    61  59  93 N6        29.67F
WILLOW GROVE   NOT AVBL
NORTH PHILA    CLOUDY    67  60  78 CALM      29.68F
PHILADELPHIA   PTSUNNY   68  59  73 SE5       29.66F
$$




USA.gov is the U.S. government's official web portal to all federal, state and local government web resources and services.